Location: Caltech
(34.1382°N, 118.1253°W)
Time: 02:47:43
(UTC-08:00)

Iridium 14 - Visible Passes

Search period start: 10 February 2016 00:00
Search period end: 20 February 2016 00:00
Orbit: 776 x 779 km, 86.4° (Epoch: 09 February)

Date Brightness Start Highest point End Pass type
(mag) Time Alt. Az. Time Alt. Az. Time Alt. Az.
10 Feb 7.7 17:52:53 10° E 17:54:49 12° E 17:56:46 10° ENE visible
10 Feb 6.5 19:29:46 10° SSW 19:34:54 61° W 19:40:04 10° N visible
11 Feb 8.3 06:04:05 10° NNE 06:08:36 29° E 06:13:06 10° SE visible
11 Feb 5.9 18:56:13 10° S 19:01:23 69° E 19:06:35 10° N visible
11 Feb 9.1 20:41:32 10° W 20:42:35 11° WNW 20:43:37 10° WNW visible
12 Feb 9.0 05:31:50 10° NE 05:34:50 15° ENE 05:37:49 10° ESE visible
12 Feb 6.6 18:23:19 10° SSE 18:28:00 35° E 18:32:41 10° NNE visible
12 Feb 8.4 20:04:51 10° SW 20:08:44 21° W 20:12:39 10° NNW visible
13 Feb 7.3 17:51:13 10° SE 17:54:42 18° E 17:58:12 10° NE visible
13 Feb 7.3 19:30:10 10° SSW 19:35:02 40° W 19:39:56 10° NNW visible
14 Feb 7.5 06:03:49 10° NNE 06:08:47 43° E 06:13:43 10° SSE visible
14 Feb 6.1 18:56:15 10° S 19:01:28 80° W 19:06:42 10° N visible
15 Feb 8.6 05:31:01 10° NNE 05:35:05 23° E 05:39:08 10° SE visible
15 Feb 6.1 18:22:57 10° SSE 18:28:00 53° E 18:33:03 10° NNE visible
15 Feb 9.0 20:06:18 10° WSW 20:09:00 14° WNW 20:11:44 10° NW visible
16 Feb 9.3 04:59:34 10° ENE 05:01:17 11° ENE 05:02:59 10° E visible
16 Feb 8.1 19:30:51 10° SW 19:35:13 27° W 19:39:38 10° NNW visible
17 Feb 6.6 06:03:43 10° N 06:08:55 66° E 06:14:04 10° S visible
17 Feb 6.9 18:56:30 10° SSW 19:01:34 53° W 19:06:40 10° N visible
18 Feb 7.9 05:30:36 10° NNE 05:35:18 33° E 05:39:58 10° SSE visible
18 Feb 6.0 18:22:51 10° S 18:28:02 80° E 18:33:15 10° N visible
19 Feb 9.0 04:58:07 10° NE 05:01:33 18° ENE 05:04:59 10° ESE visible
19 Feb 8.8 19:31:54 10° WSW 19:35:28 18° W 19:39:02 10° NW visible
